STARLINK-30265, 57646

Orbit data source: Space-Track

STARLINK-30265, 57646 is a payload satellite owned by SpaceX/Seattle (US) in LEO that was launched on Thu, 17 Aug 2023 UTC via an FALCON 9 launch vehicle from the Air Force Eastern Test Range (AFETR). Payload-class satellites include a variety of spacecraft equipped with specific instruments for various scientific and technological missions. These include communications satellites like Starlink; space stations such as the ISS; scientific satellites like the Hubble; Earth observation satellites from companies like Planet Labs, Umbra, and HawkEye 360; GPS; miniature CubeSats for education and research; and military/defense satellites.

Loading next visibility...
Identifier
57646, 2023-122Q
Orbit
LEO
Country
Flag of USUS
Related business
Manufacturer
SpaceX/Seattle
Mission
Operational Commercial Communications
Bus & Motor
STARLINK V2M, Unknown motor
Mass
730 kg wet, ~700 kg dry
Launch date (UTC)
2023-08-17 (3 years ago)
Launch vehicle
FALCON 9
Launch site
Air Force Eastern Test Range (AFETR)
Object type
Payload
Rocket body
Debris
Shape & HBR
Box + 2 Pan, 17.7 m
Radar Cross Section
33.884 m², Large (>1 m²)

Expand to show TLE details & history
Last TLE update: 2 days ago

TLE from 2 days ago
0 STARLINK-30265
1 57646U 23122Q   26171.23161958  .00000272  00000-0  19404-4 0  9993
2 57646  43.0033 233.0414 0001554 270.2671  89.8002 15.27583205157895
Epoch: 2026-06-20T05:33Z
TLE epoch observation values (Epoch: 2026-06-20T05:33:31.931Z)
Latitude
-0.00007°
Longitude
-118.79093°
Altitude
482.812 km
Speed
7.626 km/s
True Right ascension
15h 32m 09s
True Declination
0° 00' 00"
Sunlit
Object was in full shadow at epoch
Visualization orbit readout
Latitude
Unknown
Longitude
Unknown
Altitude
Unknown
Speed
Unknown
Apparent Right ascension
Unknown
Apparent Declination
Unknown
Sunlit
N/A
Visualization observer readout
Local Sidereal Time
21:39:49
Azimuth
Unknown
Elevation
Unknown
Doppler factor
Unknown
Orbital elements
Apogee altitude
486.051 km
Perigee altitude
483.918 km
Semi-major axis
6,863.121 km
Eccentricity
0.00016
Inclination
43.0033°
RAAN
233.0414°
Arg. of periapsis
270.2671°
True anomaly
89.81801°
Mean anomaly
89.8002°
Eccentric anomaly
89.8091°
Mean motion
3.81734 °/min
Orbital period
94.31 mins
BSTAR
0.000019404
Loading maneuver chart data...
Computing Atmospheric mass density...
Loading historical data...
Loading historical data...
Loading historical data...
Loading historical data...
Loading historical data...
Loading historical data...
Loading historical data...

Documentation

Showing up to 5 results
|